TEMISAT

Satellite information

Favourite Embed

Satellite Type and Status

PAYLOADIN ORBIT

Key statistics

Satellite TEMISAT at a glance.

Uptime

11634

Days in orbit

Revolutions

≈ 13.8

Per day

Orbit

LEO

Low Earth Orbit

Inclination

82.5

Latest

Satellite identification and parameters

Extended collection of information and parameters for TEMISAT.

Object identification

Identified? True

Debris? False

Object name: TEMISAT

International designator: 1993-055B

Object number (NORAD): 22783

Object ID (CCSDS): 22783

Country: ITALY (IT)

Current information (Y/N): Y

RCS size: MEDIUM

Orbital parameters

Period: 104.056 minutes

Inclination: 82.5495 deg

SMA: 7328.34 km

Apoapsis: 967.969 km

Periapsis: 932.441 km

RAAN: 211.4172 deg

Eccentricy: 0.002424

Argument of periapsis: 95.6157 deg

Mean anomaly: 264.7769 deg

Mean motion: 13.83866974 rev/day

Mean motion (dot): 0.00000054 rev/day2

B* drag term: 0.000034605 1/REarth

Two-line elements (TLE)

Creation date: July 7, 2025, 6:34 p.m.

Reference frame: TEME

Reference center: EARTH

Epoch: July 7, 2025, 1 p.m. UTC

TLE line 0: 0 TEMISAT

TLE line 1: 1 22783U 93055B 25188.54194597 .00000054 00000-0 34605-4 0 9993

TLE line 2: 2 22783 82.5495 211.4172 0024240 95.6157 264.7769 13.83866974608044

Live tracking on map

Real-time ground track for satellite TEMISAT.

In-orbit conjunctions

A list of the most updated potential collisions computed for object TEMISAT.

Target Orbit TCA Probability of collision Miss distance Type
FENGYUN 1C DEB SSO 2025-06-16 03:44:47 0.00116915 980.0 (m) DEBRIS
THORAD AGENA D DEB SSO 2025-06-16 02:07:45 0.000503261 877.0 (m) DEBRIS
FENGYUN 1C DEB SSO 2024-10-18 09:23:15 0.0003551311 411.0 (m) DEBRIS
THORAD AGENA D DEB SSO 2024-09-24 17:07:36 0.0001118102 569.0 (m) DEBRIS
SL-14 R/B LEO 2024-09-07 20:43:17 0.00434994 93.0 (m) ROCKET BODY

Associated space launch

Second generation soviet meteorological satellite

TEMISAT was lifted into orbit during the mission ‘Tsiklon-3 | Meteor-2 21’, on board a Tsiklon-3 space rocket.

The launch took place on Aug. 31, 1993, 4:40 a.m. from 32/1.

For more information about the launch, click the button.

Launch to space Tsiklon-3 | Meteor-2 21
Tsiklon-3 | Meteor-2 21

Agency: N/A

Status: Launch Successful

Launch date: Aug. 31, 1993, 4:40 a.m. UTC

Rocket: Tsiklon-3

Launch pad: 32/1

Location: Plesetsk Cosmodrome, Russian Federation

...

Latest news about this satellite

There are no fresh news available about this satellite. Check back as we update our databases every day.


Newsletter sign-up

Weekly statistics, charts and insights to help you stay on top of the space industry.